Volver al catálogo

SAUDICOMSAT 3

ActivoComunicacionesSSO
NORAD 31125·PAYLOAD·🇸🇦 Saudi Arabia

Lanzado Apr 17, 2007 desde Baikonur Cosmodrome

Loading…

Próximos Pases (próximas 24 horas)

TLE

ActualizadoSource: Space-Track

Época: Sep 14, 2026, 04:04 UTC

1 31125U 07012J   26257.16946199  .00000501  00000-0  89771-4 0  9991
2 31125  98.3256 234.4471 0040015 129.3437 231.1326 14.70815891 37902

Sigue SAUDICOMSAT 3 en tiempo real con AllMySat

Download on the App Store